Find Starlink 4138

NORAD ID: 53535 Int'l Des: 2022-101 Owner: SPXS Country: US Constellation: starlink operational
LEOCIRCULAR

Live Position

Loading 3D Globe...

About Starlink 4138

Description loading...

Upcoming Passes

Passes for default location (London). Set your location on the main map for personalized predictions.

Altitude History

Loading altitude history...

Two-Line Element Set

1 53535U 22101J 26123.44233458 .00001796 00000-0 13087-3 0 9999
2 53535 53.2145 188.3242 0001228 75.0639 285.0489 15.08842421204438
Epoch: May 3, 2026 • Age: 22 hours

Current Status

Altitude 540.1 km
Velocity 7.60 km/s
Sub-Earth Point 25.21°N, 152.85°W
Launch Date Aug 19, 2022
Age 3.7 years
Type internet

Technical Details

Classification Payload
Mass 300.00 kg
Dry Mass 290.00 kg
Total Mass 300.00 kg
Length 0.20 m
Diameter 2.80 m
Span 9.00 m
Shape Box + pan
Manufacturer SPXS
Bus Type Starlink
Phase Status In Orbit
Owner/State SPXS/US

Most Searched